Beaufort, NC

2:07 PM EDT on August 20, 2019 (GMT -0400)
Smith

Weather History for KMRH - June, 2019

Change the Weather History Date:

Monday, June 10, 2019

  Actual Average Record
Temperature  
Mean Temperature 80 °F -  
Max Temperature 84 °F 82 °F 90 °F (1985)
Min Temperature 75 °F 66 °F 52 °F (1988)
Cooling Degree Days 14    
Growing Degree Days 30 (Base 50)    
Moisture  
Dew Point 74 °F    
Average Humidity 82    
Maximum Humidity 91    
Minimum Humidity 72    
Precipitation  
Precipitation 0.19 in - - ()
Sea Level Pressure  
Sea Level Pressure 29.99 in    
Wind  
Wind Speed 9 mph (SSW)    
Max Wind Speed 18 mph    
Max Gust Speed 25 mph    
Visibility 10 miles    
Events Rain    
Averages and records for this station are not official NWS values.
T = Trace of Precipitation, MM = Missing Value Source: NWS Daily Summary

Daily Weather History Graph

Daily Weather History Graph

Search for Another Location

Airport or City:

Astronomy

Jun. 10, 2019 Rise Set
Actual Time 5:52 AM EDT 8:19 PM EDT
Civil Twilight 5:23 AM EDT 8:48 PM EDT
Nautical Twilight 4:47 AM EDT 9:25 PM EDT
Astronomical Twilight 4:07 AM EDT 10:05 PM EDT
Moon 1:27 PM EDT (6/10) 1:42 AM EDT (6/10)
Length of Visible Light 15h 25m
Length of Day
14h 26m
First Quarter, 55% of the Moon is Illuminated
Jun 10
First Quarter
Jun 17
Full
Jun 25
Last Quarter
Jul 2
New
Jul 9
First Quarter

Hourly Weather History & Observations

Time (EDT) Temp. Heat Index Dew Point Humidity Pressure Visibility Wind Dir Wind Speed Gust Speed Precip Events Conditions
12:58 AM 79.0 °F - 73.9 °F 84% 30.01 in 10.0 mi South 6.9 mph - N/A   Clear
1:58 AM 79.0 °F - 73.9 °F 84% 30.01 in 10.0 mi South 6.9 mph - N/A   Clear
2:58 AM 79.0 °F - 73.9 °F 84% 29.99 in 10.0 mi South 8.1 mph - N/A   Clear
3:58 AM 78.1 °F - 73.9 °F 87% 29.99 in 10.0 mi SSW 9.2 mph - 0.00 in Rain Light Rain
4:51 AM 78.1 °F - 73.0 °F 84% 29.99 in 10.0 mi SSW 6.9 mph - 0.00 in Rain Light Rain
4:58 AM 79.0 °F - 73.9 °F 84% 29.99 in 10.0 mi SSW 6.9 mph - 0.00 in Rain Light Rain
5:26 AM 79.0 °F - 75.0 °F 88% 29.98 in 10.0 mi SSW 8.1 mph - 0.00 in Rain Light Rain
5:43 AM 78.1 °F - 73.9 °F 87% 29.98 in 10.0 mi SW 6.9 mph - 0.00 in   Scattered Clouds
5:58 AM 79.0 °F - 73.9 °F 84% 29.99 in 10.0 mi SW 5.8 mph - 0.00 in   Mostly Cloudy
6:09 AM 78.1 °F - 73.9 °F 87% 29.99 in 10.0 mi SSW 4.6 mph - N/A   Scattered Clouds
6:58 AM 79.0 °F - 73.9 °F 84% 30.00 in 10.0 mi SW 6.9 mph - N/A   Clear
7:58 AM 80.1 °F 85.1 °F 75.0 °F 85% 30.02 in 10.0 mi SSW 6.9 mph - N/A   Mostly Cloudy
8:30 AM 81.0 °F 86.7 °F 75.0 °F 82% 30.02 in 10.0 mi South 8.1 mph - N/A   Scattered Clouds
8:37 AM 81.0 °F 86.7 °F 75.0 °F 82% 30.02 in 10.0 mi South 9.2 mph - N/A   Mostly Cloudy
8:58 AM 82.0 °F 88.6 °F 75.0 °F 79% 30.02 in 10.0 mi South 9.2 mph - N/A   Scattered Clouds
9:58 AM 82.9 °F 90.2 °F 75.0 °F 77% 30.02 in 10.0 mi South 8.1 mph - N/A   Partly Cloudy
10:20 AM 78.1 °F - 72.0 °F 81% 30.02 in 1.8 mi SSE 17.3 mph 25.3 mph 0.09 in Rain Heavy Rain
10:36 AM 75.9 °F - 73.0 °F 91% 30.03 in 3.0 mi South 9.2 mph - 0.19 in Rain Rain
10:48 AM 77.0 °F - 73.9 °F 90% 30.02 in 10.0 mi South 4.6 mph - 0.19 in   Mostly Cloudy
10:58 AM 81.0 °F 86.2 °F 73.9 °F 79% 30.02 in 10.0 mi SSE 8.1 mph - 0.19 in   Mostly Cloudy
11:58 AM 81.0 °F 86.2 °F 73.9 °F 79% 30.01 in 10.0 mi South 8.1 mph - N/A   Overcast
12:58 PM 82.0 °F 88.6 °F 75.0 °F 79% 30.00 in 10.0 mi SSW 9.2 mph - N/A   Mostly Cloudy
1:58 PM 82.9 °F 88.8 °F 73.0 °F 72% 29.99 in 10.0 mi SW 11.5 mph - N/A   Partly Cloudy
2:58 PM 84.0 °F 91.2 °F 73.9 °F 72% 29.98 in 10.0 mi SSW 16.1 mph - N/A   Scattered Clouds
3:58 PM 84.0 °F 91.2 °F 73.9 °F 72% 29.96 in 10.0 mi SW 17.3 mph - N/A   Partly Cloudy
4:58 PM 82.9 °F 89.4 °F 73.9 °F 74% 29.95 in 10.0 mi SSW 17.3 mph - 0.00 in   Scattered Clouds
5:58 PM 82.9 °F 89.4 °F 73.9 °F 74% 29.94 in 10.0 mi SSW 13.8 mph - N/A   Partly Cloudy
6:58 PM 81.0 °F 86.2 °F 73.9 °F 79% 29.94 in 10.0 mi SSW 16.1 mph - 0.00 in   Clear
7:58 PM 80.1 °F 84.2 °F 73.0 °F 79% 29.95 in 10.0 mi SSW 13.8 mph - N/A   Clear
8:58 PM 80.1 °F 84.5 °F 73.9 °F 81% 29.95 in 10.0 mi SW 18.4 mph 24.2 mph N/A   Partly Cloudy
9:58 PM 80.1 °F 85.1 °F 75.0 °F 85% 29.96 in 10.0 mi SSW 15.0 mph - N/A   Partly Cloudy
10:58 PM 80.1 °F 85.1 °F 75.0 °F 85% 29.95 in 10.0 mi SSW 15.0 mph - N/A   Partly Cloudy
11:50 PM 80.1 °F 85.1 °F 75.0 °F 85% 29.94 in 10.0 mi SW 15.0 mph - N/A   Mostly Cloudy
11:58 PM 80.1 °F 85.1 °F 75.0 °F 85% 29.95 in 10.0 mi SW 15.0 mph - N/A   Scattered Clouds